Location: Sungai Apap
(2.6167°N, 113.3833°E)
Time: 15:10:31
(UTC+00:00)

ARIANE R/B - Pass Details

Date: 25 May 2024
Orbit: 602 x 35871 km, 7.3° (Epoch: 11 June)

Event Time Altitude Azimuth Distance (km) Brightness Sun altitude
Rises 11:59:00 0° 281° (W) 2,881 7.9 -21.2°
Reaches altitude 10° 12:00:34 10° 284° (WNW) 2,136 6.9 -21.5°
Maximum altitude 12:04:36 73° 9° (N) 1,139 4.3 -22.4°
Enters shadow 12:09:47 29° 88° (E) 3,105 6.1 -23.6°
